This is the latest recevied weather packets stored in our database for station/object EA3FHP. If no packets are shown the sender has not sent any weather packets the latest 10 day(s).
| Time | Temp. | Humidity | Pressure | Rain* | Wind** | Luminosity | Snow |
|---|---|---|---|---|---|---|---|
| 1777785003 | 12.22° C | 82% | 1018.2 hPa | 0 mm | - | - | - |
| 1777784403 | 12.22° C | 82% | 1018.1 hPa | 0 mm | - | - | - |
| 1777783803 | 12.22° C | 81% | 1018 hPa | 0 mm | - | - | - |
| 1777783203 | 12.22° C | 81% | 1017.9 hPa | 0 mm | - | - | - |
| 1777782603 | 12.78° C | 81% | 1018 hPa | 0 mm | - | - | - |
| 1777782003 | 12.78° C | 81% | 1018.4 hPa | 0 mm | - | - | - |
| 1777755603 | 13.33° C | 74% | 1021.4 hPa | 0 mm | - | - | - |
| 1777755003 | 13.33° C | 73% | 1021.4 hPa | 0 mm | - | - | - |
| 1777754403 | 13.33° C | 75% | 1021.1 hPa | 0 mm | - | - | - |
| 1777753803 | 13.33° C | 73% | 1020.9 hPa | 0 mm | - | - | - |
| 1777753203 | 13.89° C | 73% | 1020.8 hPa | 0 mm | - | - | - |
| 1777752603 | 13.89° C | 73% | 1020.7 hPa | 0 mm | - | - | - |
| 1777752003 | 13.89° C | 72% | 1021.1 hPa | 0 mm | - | - | - |
| 1777751403 | 14.44° C | 70% | 1020.9 hPa | 0 mm | - | - | - |
| 1777750803 | 14.44° C | 70% | 1020.8 hPa | 0 mm | - | - | - |
| 1777750203 | 14.44° C | 68% | 1021.1 hPa | 0 mm | - | - | - |
| 1777749603 | 14.44° C | 68% | 1020.6 hPa | 0 mm | - | - | - |
| 1777749003 | 14.44° C | 67% | 1020.7 hPa | 0 mm | - | - | - |
| 1777748403 | 15° C | 70% | 1020.9 hPa | 0 mm | - | - | - |
| 1777747803 | 15° C | 67% | 1020.6 hPa | 0 mm | - | - | - |
| 1777747203 | 15° C | 70% | 1020.8 hPa | 0 mm | - | - | - |
| 1777746603 | 15° C | 70% | 1020.4 hPa | 0 mm | - | - | - |
| 1777746003 | 15.56° C | 70% | 1020.2 hPa | 0 mm | - | - | - |
| 1777745403 | 16.11° C | 66% | 1020.4 hPa | 0 mm | - | - | - |
| 1777744803 | 16.11° C | 67% | 1020.5 hPa | 0 mm | - | - | - |
* Rain latest hour (hover to see other rain measurements)
** Current wind speed in m/s (hover to see current wind gust speed)